Regional Weather Roundup
Issued by NWS

Home | Current Version | Previous Version | Text Only | Print | Product List | Glossary Off
Versions: 1 2 3 4 5 6 7 8 9 10 11 12 13 14 15 16 17 18 19 20 21 22 23 24 25 26 27 28 29 30 31 32 33 34 35 36 37 38 39 40 41 42 43 44 45 46 47 48 49 50

365
ASUS45 KTFX 261310
RWRMT
MONTANA REGIONAL WEATHER ROUNDUP
NATIONAL WEATHER SERVICE GREAT FALLS MT
700 AM MDT MON JUN 26 2017

NOTE: "FAIR" INDICATES FEW OR NO CLOUDS BELOW 12000 FEET WITH NO
SIGNIFICANT WEATHER AND/OR OBSTRUCTIONS TO VISIBILITY.

MTZ001>007-043-261400-
WEST OF THE DIVIDE

CITY           SKY/WX    TMP DP  RH WIND       PRES   REMARKS
KALISPELL      MOSUNNY   54  49  83 N6        29.97S
MISSOULA       MOSUNNY   53  48  83 CALM      30.03F
BUTTE          SUNNY     47  39  74 SE5       30.20S
MULLAN PASS    MOCLDY    65  35  33 SW6       30.13S
ANACONDA         N/A     55  39  54 S6        30.14S
DEER LODGE       N/A     52  43  71 CALM      30.14F
EUREKA           N/A     52  45  76 CALM      29.95S
HAMILTON         N/A     61  43  51 S7        30.04F
$$

MTZ008-052>055-261400-
SOUTHWEST MONTANA

CITY           SKY/WX    TMP DP  RH WIND       PRES   REMARKS
BOZEMAN        SUNNY     52  43  71 SE3       30.15F
DILLON         SUNNY     53  41  63 S10       30.18S
W YELLOWSTONE  CLOUDY    39  36  87 CALM      30.34S
ENNIS          SUNNY     48  39  71 E6        30.24F
THREE FORKS      N/A     46  44  93 CALM      30.12F
$$

MTZ009-010-012-014-046-048-049-054-261400-
EAST SLOPES AND CENTRAL MONTANA

CITY           SKY/WX    TMP DP  RH WIND       PRES   REMARKS
CUT BANK       PTSUNNY   52  43  71 E3        30.00F
GREAT FALLS    SUNNY     63  42  46 S6        30.03F
MALMSTROM AFB  SUNNY     57  46  65 S7        30.03F
HELENA         CLOUDY    57  44  62 CALM      30.10F
CHOTEAU          N/A     54  45  71 SW8       30.03F
$$

MTZ011-013-016-021-045-047-050-051-261400-
NORTH CENTRAL MONTANA

CITY           SKY/WX    TMP DP  RH WIND       PRES   REMARKS
HAVRE          PTSUNNY   55  39  54 E13       30.02F
LEWISTOWN      SUNNY     54  39  57 SE9       30.11F
N BAR RANCH      N/A     55  36  47 N5        30.17F
CHINOOK          N/A     55  41  58 E15G22    30.04F
FORT BENTON      N/A     55  39  54 MISG      30.05S
$$

MTZ017>020-022>027-061-062-261400-
NORTHEAST MONTANA

CITY           SKY/WX    TMP DP  RH WIND       PRES   REMARKS
GLASGOW        SUNNY     57  40  52 E16       30.13F
JORDAN           N/A     53  32  44 CALM      30.12F
SIDNEY         SUNNY     55  43  63 CALM      30.22F
WOLF POINT     SUNNY     53  42  66 E12       30.18F
MALTA          SUNNY     55  43  62 NE7       30.10S
PLENTYWOOD       N/A     54  45  71 SE5       30.21F
POPLAR           N/A     54  43  66 E10       30.18F
$$

MTZ028>42-056>058-261400-
SOUTHCENTRAL AND SOUTHEAST MONTANA

CITY           SKY/WX    TMP DP  RH WIND       PRES   REMARKS
BAKER          SUNNY     55  38  52 SE10      30.22S
BILLINGS       MOSUNNY   54  40  59 SW8       30.15S
LIVINGSTON     SUNNY     48  41  76 NW5       30.18F
MILES CITY     SUNNY     59  36  42 SE8       30.16S
BIG TIMBER     SUNNY     54  41  62 SW3       30.20S
ROUNDUP          N/A     51  31  46 S8        30.04S
$$

REGIONAL REPORTS...DAKOTAS

CITY           SKY/WX    TMP DP  RH WIND       PRES   REMARKS
WILLISTON      SUNNY     56  45  66 CALM      30.23F
MINOT          SUNNY     55  41  59 SW7       30.25S
DICKINSON      SUNNY     52  43  71 S7        30.23F
BEACH            N/A     52  43  71 SE10      30.25S
CROSBY           N/A     52  46  82 S9        30.24F
TIOGA            N/A     48  48 100 CALM      30.26F
WATFORD CITY     N/A     50  45  81 E5        30.23F
BISMARCK       SUNNY     48  45  89 CALM      30.29R
GRAND FORKS    SUNNY     56  47  71 W7        30.22R
FARGO          MOSUNNY   56  45  66 W3        30.23S
BUFFALO SD       N/A     55  41  59 E8        30.18S
RAPID CITY     SUNNY     56  39  53 SW6       30.26S
$$

REGIONAL REPORTS...WYOMING/IDAHO/WASHINGTON

CITY           SKY/WX    TMP DP  RH WIND       PRES   REMARKS
GILLETTE       SUNNY     57  35  43 S17       30.23R
SHERIDAN       SUNNY     54  43  66 CALM      30.19S
BUFFALO WY     SUNNY     59  42  53 CALM      30.23S
YELLOWSTONE LA   N/A     37  35  92 CALM      30.42S
IDAHO FALLS    SUNNY     50  48  93 NW3       30.17R
SALMON         CLEAR     50  45  81 CALM      30.12S
BOISE          CLEAR     68  44  42 SE17      29.96R
SPOKANE        PTCLDY    67  51  56 E7        29.88F
$$

REGIONAL REPORTS...ALBERTA

CITY           SKY/WX    TMP DP  RH WIND       PRES   REMARKS
EDMONTON       SUNNY     61  46  59 S17G25    29.82F
CALGARY        PTSUNNY   55  48  76 S5        29.91F
LETHBRIDGE     PTSUNNY   63  45  51 S6        29.93S
MEDICINE HAT   PTSUNNY   68  41  37 SE5       29.96F
CARDSTON         N/A     57  46  67 SE1         N/A
MILK RIVER       N/A     59  41  51 S12         N/A
$$

REGIONAL REPORTS...SASKATCHEWAN

CITY           SKY/WX    TMP DP  RH WIND       PRES   REMARKS
SWIFT CURRENT  SUNNY     54  43  66 SE15      30.11F
REGINA         MOSUNNY   50  41  71 SE8       30.21F
SASKATOON      PTSUNNY   55  39  54 S15       30.16F
VAL MARIE        N/A     55  41  58 SE10        N/A
ROCKGLEN         N/A     50  41  71 SE9         N/A
$$




USA.gov is the U.S. government's official web portal to all federal, state and local government web resources and services.